Change the Weather History Date:

Thursday, January 16, 2014

  Actual Average (KYNG) Record (KYNG)
Temperature  
Mean Temperature 26 °F 26 °F  
Max Temperature 30 °F 32 °F 56 °F (1953)
Min Temperature 21 °F 19 °F -14 °F (1982)
Degree Days  
Heating Degree Days 40 40  
Month to date heating degree days 627  
Since 1 July heating degree days 3033  
Cooling Degree Days 0 0  
Month to date cooling degree days 0  
Year to date cooling degree days 0  
Moisture  
Dew Point 15 °F    
Average Humidity 65    
Maximum Humidity 78    
Minimum Humidity 45    
Precipitation  
Precipitation 0.00 in 0.08 in 0.52 in (1991)
Month to date precipitation 1.38  
Year to date precipitation 1.38  
Snow  
Snow 0.00 in 0.60 in - ()
Month to date snowfall 8.7  
Since 1 July snowfall 28.1  
Snow Depth -    
Sea Level Pressure  
Sea Level Pressure 29.88 in    
Wind  
Wind Speed 10 mph (SSW)    
Max Wind Speed 18 mph    
Max Gust Speed 26 mph    
Visibility 8 miles    
Events Snow    
T = Trace of Precipitation, MM = Missing Value Source: NWS Daily Summary

Daily Weather History Graph

Daily Weather History Graph

Search for Another Location

Airport or City:

Trip Planner

Search our weather history database for the weather conditions in past years. The results will help you decide how hot, cold, wet, or windy it might be!

Date:

Astronomy

Jan. 16, 2014 Rise Set
Actual Time 7:47 AM EST 5:18 PM EST
Civil Twilight 7:16 AM EST 5:48 PM EST
Nautical Twilight 6:42 AM EST 6:23 PM EST
Astronomical Twilight 6:09 AM EST 6:56 PM EST
Moon 6:10 PM EST (1/16) 7:38 AM EST (1/16)
Length of Visible Light 10h 32m
Length of Day
9h 31m
Full, 100% of the Moon is Illuminated
Jan 16
Full
Jan 24
Last Quarter
Jan 30
New
Feb 6
First Quarter
Feb 14
Full

Hourly Weather History & Observations

Time (EST) Temp. Windchill Dew Point Humidity Pressure Visibility Wind Dir Wind Speed Gust Speed Precip Events Conditions
12:02 AM 24.8 °F 16.9 °F 17.6 °F 74% 29.96 in 6.0 mi WSW 6.9 mph - 0.00 in Snow Light Snow
12:53 AM 24.1 °F 16.0 °F 16.0 °F 71% 29.99 in 10.0 mi WSW 6.9 mph - 0.00 in   Overcast
1:53 AM 24.1 °F 13.7 °F 12.9 °F 62% 30.00 in 10.0 mi WSW 10.4 mph - N/A   Overcast
2:53 AM 24.1 °F 18.2 °F 10.9 °F 57% 29.98 in 10.0 mi SSW 4.6 mph - N/A   Overcast
3:53 AM 23.0 °F 17.0 °F 12.9 °F 65% 29.96 in 10.0 mi South 4.6 mph - N/A   Overcast
4:53 AM 24.1 °F 15.2 °F 15.1 °F 69% 29.96 in 10.0 mi SW 8.1 mph - N/A   Overcast
5:53 AM 24.1 °F 13.1 °F 12.0 °F 60% 29.95 in 10.0 mi SSW 11.5 mph - N/A   Overcast
6:53 AM 21.9 °F 10.4 °F 10.0 °F 60% 29.96 in 10.0 mi SW 11.5 mph - N/A   Mostly Cloudy
7:53 AM 21.0 °F 9.3 °F 10.0 °F 63% 29.95 in 10.0 mi SSW 11.5 mph - N/A   Partly Cloudy
8:33 AM 21.2 °F 8.3 °F 10.4 °F 63% 29.91 in 10.0 mi SSW 13.8 mph 19.6 mph N/A   Mostly Cloudy
8:53 AM 21.9 °F 9.2 °F 10.9 °F 63% 29.95 in 10.0 mi South 13.8 mph 21.9 mph N/A   Mostly Cloudy
9:09 AM 21.2 °F 7.8 °F 12.2 °F 68% 29.91 in 10.0 mi SSW 15.0 mph - N/A   Scattered Clouds
9:53 AM 24.1 °F 10.1 °F 12.9 °F 62% 29.96 in 10.0 mi South 18.4 mph 26.5 mph N/A   Clear
10:53 AM 26.1 °F 14.0 °F 14.0 °F 60% 29.94 in 10.0 mi South 15.0 mph 25.3 mph N/A   Partly Cloudy
11:53 AM 27.0 °F 13.9 °F 14.0 °F 58% 29.90 in 10.0 mi South 18.4 mph 25.3 mph N/A   Overcast
12:53 PM 28.9 °F 17.3 °F 14.0 °F 54% 29.85 in 10.0 mi South 16.1 mph 24.2 mph N/A   Overcast
1:53 PM 28.9 °F 17.7 °F 14.0 °F 54% 29.83 in 10.0 mi SSW 15.0 mph 25.3 mph N/A   Partly Cloudy
2:53 PM 30.0 °F 19.5 °F 10.9 °F 45% 29.83 in 10.0 mi SSW 13.8 mph 24.2 mph N/A   Overcast
3:53 PM 30.0 °F 20.5 °F 10.9 °F 45% 29.82 in 10.0 mi SSW 11.5 mph - N/A   Overcast
4:41 PM 28.4 °F 16.2 °F 15.8 °F 59% 29.79 in 4.0 mi SSW 17.3 mph 21.9 mph 0.00 in Snow Light Snow
4:53 PM 27.0 °F 17.3 °F 18.0 °F 69% 29.82 in 4.0 mi South 10.4 mph 19.6 mph 0.00 in Snow Light Snow
5:09 PM 26.6 °F 16.8 °F 19.4 °F 74% 29.78 in 2.5 mi South 10.4 mph 18.4 mph 0.00 in Snow Light Snow
5:53 PM 26.1 °F 16.8 °F 19.9 °F 78% 29.81 in 2.0 mi South 9.2 mph - 0.00 in Snow Light Snow
6:21 PM 26.6 °F 15.7 °F 19.4 °F 74% 29.77 in 3.0 mi South 12.7 mph - 0.00 in Snow Light Snow
6:53 PM 27.0 °F 18.0 °F 21.0 °F 78% 29.81 in 8.0 mi South 9.2 mph - 0.00 in   Overcast
7:53 PM 27.0 °F 17.3 °F 19.9 °F 75% 29.81 in 4.0 mi South 10.4 mph - 0.00 in Snow Light Snow
8:53 PM 27.0 °F 18.7 °F 19.9 °F 75% 29.82 in 5.0 mi SSE 8.1 mph - 0.00 in Snow Light Snow
9:53 PM 28.0 °F 19.3 °F 19.0 °F 69% 29.82 in 10.0 mi South 9.2 mph - 0.00 in   Overcast
10:53 PM 28.9 °F 21.9 °F 18.0 °F 64% 29.79 in 10.0 mi South 6.9 mph - N/A   Overcast
11:50 PM 28.4 °F 19.1 °F 19.4 °F 69% 29.75 in 9.0 mi South 10.4 mph - 0.00 in   Overcast
11:53 PM 28.9 °F 19.8 °F 19.9 °F 69% 29.79 in 8.0 mi South 10.4 mph - 0.00 in Snow Light Snow